Weather Roundup
Issued by NWS

Home | Current Version | Previous Version | Graphics & Text | Print | Product List | Glossary Off
Versions: 1 2 3 4 5 6 7 8 9 10 11 12 13 14 15 16 17 18 19 20 21 22 23 24 25 26 27 28 29 30 31 32 33 34 35 36 37 38 39 40 41 42 43 44 45 46 47 48 49 50

000
NZUS93 KARX 011359
HRRWXR

CURRENT HOURLY OBSERVATIONS ACROSS
MUCH OF THE UPPER MISSISSIPPI VALLEY
NATIONAL WEATHER SERVICE LA CROSSE WI
900 AM CDT WED JUL 01 2015


...SOUTHEAST MINNESOTA...


CITY           SKY/WX    TMP DP  RH WIND       PRES   REMARKS
ROCHESTER      MOSUNNY   59  51  75 E9        30.01S
ROCHESTER/MAYO FAIR      58  50  76 E6        30.01R
WINONA         MOSUNNY   59  50  72 SE7       30.01S
AUSTIN         MOSUNNY   61  54  77 E8        29.99S
ALBERT LEA     MOSUNNY   61  54  77 E7        29.99S
DODGE CENTER   MOSUNNY   57  52  82 SE7       30.00S
PRESTON        SUNNY     57  50  77 E7        30.01S
OWATONNA       PTSUNNY   61  52  72 SE5       30.00R
FARIBAULT      CLOUDY    59  52  77 SE5       30.01R
$$

...ELSEWHERE IN MINNESOTA...


CITY           SKY/WX    TMP DP  RH WIND       PRES   REMARKS
MINNEAPOLIS    CLOUDY    61  50  67 SE6       30.01R
INTNL FALLS    SUNNY     62  56  80 CALM      29.98F
DULUTH         MOSUNNY   61  49  64 SW7       30.01F
RED WING       PTSUNNY   59  50  72 E5        30.00S
REDWOOD FALLS  CLOUDY    61  56  83 E6        29.99R
MANKATO        CLOUDY    61  52  72 E9        29.99R
WORTHINGTON    CLOUDY    63  55  77 E7        29.96F
FAIRMONT       PTSUNNY   61  54  77 E7        29.98R
$$

...SOUTHWEST WISCONSIN...


CITY           SKY/WX    TMP DP  RH WIND       PRES   REMARKS
LA CROSSE      SUNNY     61  49  64 E10       30.00S
PRAIRIE DU CHI SUNNY     59  51  74 NE8       29.99S
BOSCOBEL       SUNNY     60  50  69 NE6       30.00R
LONE ROCK      NOT AVBL
PLATTEVILLE    CLOUDY    60  57  89 NE9       29.98S
FORT MC COY    SUNNY     58  49  72 CALM      30.02R
VIROQUA        FAIR      58  49  73 E9        30.01R
WIS DELLS      MOSUNNY   57  44  62 NE3       30.00S
$$

...ELSEWHERE IN WISCONSIN...


CITY           SKY/WX    TMP DP  RH WIND       PRES   REMARKS
MILWAUKEE      MOSUNNY   61  46  57 NW7       29.98S
MADISON        MOSUNNY   61  45  55 N3        29.99R
GREEN BAY      MOSUNNY   56  47  71 NE7       29.99R
EAU CLAIRE     NOT AVBL
BLACK RVR FLS  FAIR      56  48  75 CALM      30.02R
MEDFORD        SUNNY     53  45  75 NE5       30.03S
WAUSAU         SUNNY     57  44  62 N7        30.01R
WIS RAPIDS     SUNNY     59  44  57 N9        30.02S
MARSHFIELD     SUNNY     58  43  57 NE8       30.02S
RICE LAKE      PTSUNNY   57  46  67 CALM      30.04S
$$

...NORTHEAST IOWA...


CITY           SKY/WX    TMP DP  RH WIND       PRES   REMARKS
DECORAH          N/A    N/A N/A N/A MISG        N/A
MASON CITY     SUNNY     62  56  80 E9        29.99R
CHARLES CITY   SUNNY     59  59 100 E9        29.99R
OELWEIN          N/A     61  57  88 E8        29.98R
$$

...ELSEWHERE IN IOWA...


CITY           SKY/WX    TMP DP  RH WIND       PRES   REMARKS
DES MOINES     CLOUDY    69  61  75 E12       29.90F
IOWA CITY      SUNNY     66  59  78 NE12      29.94S
FORT DODGE     MOSUNNY   66  59  77 E10       29.94S
$$

...NORTHERN ILLINOIS...


CITY           SKY/WX    TMP DP  RH WIND       PRES   REMARKS
CHICAGO-OHARE  PTSUNNY   59  51  75 VRB3      29.97S
CHICAGO-MIDWAY CLOUDY    62  53  72 NE7       29.97S
MOLINE         CLOUDY    65  61  87 NE12      29.93S FOG
ROCKFORD       CLOUDY    63  54  72 NE8       29.99R
PEORIA         SUNNY     69  63  81 E8        29.92R
$$

NOTE: "FAIR" INDICATES FEW OR NO CLOUDS BELOW 12,000 FEET WITH NO
SIGNIFICANT WEATHER AND/OR OBSTRUCTIONS TO VISIBILITY. WIND
SPEEDS ARE IN MILES-PER-HOUR.



USA.gov is the U.S. government's official web portal to all federal, state and local government web resources and services.